TJS-12

Last updated on Mon Jan 20 2025 00:02:04 GMT+0000 (Coordinated Universal Time)

1 62374U 24246A 25019.05554662 -.00000220 00000+0 00000+0 0 9993 2 62374 1.9232 284.7673 0000950 6.8165 353.6018 1.00271634 413
UTC large
Height (km)
Speed (km/s)
/
Latitude / Longitude
Inclination (degrees)
Orbital Period (minutes)
Azimuth
Elevation
Range (km)
Doppler Factor

Next 0 passes for location: London (51.5072 / 0.1276)

Sorry there are no passes over London.